EN

Hourly Weather Dziedziule

Today, 23 October, Friday

Time Temperature Precipitation Wind Pressure Humidity
00:00 +11°C° 0 mm 4 mps 745 mmHg 91%
01:00 +11°C° 0 mm 4 mps 745 mmHg 92%
02:00 +11°C° 0 mm 4 mps 745 mmHg 92%
03:00 +11°C° 0 mm 4 mps 745 mmHg 93%
04:00 +11°C° 0 mm 4 mps 744 mmHg 93%
05:00 +10°C° 0 mm 4 mps 743 mmHg 93%
06:00 +10°C° 0.1 mm 5 mps 743 mmHg 92%
07:00 +10°C° 0.1 mm 5 mps 743 mmHg 91%
08:00 +12°C° 0.1 mm 5 mps 743 mmHg 90%
09:00 +12°C° 0.3 mm 5 mps 743 mmHg 88%
10:00 +13°C° 0.3 mm 5 mps 743 mmHg 87%
11:00 +13°C° 0.3 mm 5 mps 743 mmHg 86%
12:00 +14°C° 0.1 mm 5 mps 743 mmHg 83%
13:00 +14°C° 0.1 mm 6 mps 743 mmHg 80%
14:00 +15°C° 0.1 mm 6 mps 743 mmHg 78%
15:00 +14°C° 0 mm 5 mps 743 mmHg 79%
16:00 +13°C° 0 mm 4 mps 743 mmHg 80%
17:00 +12°C° 0 mm 3 mps 743 mmHg 82%
18:00 +11°C° 0 mm 3 mps 743 mmHg 85%
19:00 +10°C° 0 mm 3 mps 743 mmHg 87%
20:00 +9°C° 0 mm 2 mps 744 mmHg 90%
21:00 +9°C° 0 mm 2 mps 744 mmHg 91%
22:00 +9°C° 0 mm 2 mps 744 mmHg 92%
23:00 +8°C° 0 mm 2 mps 744 mmHg 92%

Tomorrow, 24 October, Saturday

Time Temperature Precipitation Wind Pressure Humidity
00:00 +9°C° 0 mm 2 mps 744 mmHg 91%
01:00 +9°C° 0 mm 2 mps 744 mmHg 90%
02:00 +10°C° 0 mm 1 mps 744 mmHg 90%
03:00 +10°C° 0 mm 1 mps 744 mmHg 90%
04:00 +10°C° 0 mm 1 mps 744 mmHg 90%
05:00 +10°C° 0 mm 1 mps 743 mmHg 90%
06:00 +10°C° 0 mm 1 mps 743 mmHg 90%
07:00 +10°C° 0 mm 1 mps 743 mmHg 90%
08:00 +10°C° 0 mm 1 mps 743 mmHg 90%
09:00 +11°C° 0 mm 1 mps 743 mmHg 90%
10:00 +10°C° 0 mm 2 mps 743 mmHg 89%
11:00 +12°C° 0 mm 2 mps 743 mmHg 89%
12:00 +12°C° 0 mm 3 mps 743 mmHg 87%
13:00 +12°C° 0 mm 3 mps 743 mmHg 85%
14:00 +13°C° 0 mm 4 mps 743 mmHg 83%
15:00 +12°C° 0.3 mm 4 mps 743 mmHg 84%
16:00 +12°C° 0.3 mm 4 mps 743 mmHg 86%
17:00 +12°C° 0.3 mm 4 mps 743 mmHg 88%
18:00 +11°C° 0.1 mm 4 mps 744 mmHg 90%
19:00 +10°C° 0.1 mm 3 mps 744 mmHg 92%
20:00 +10°C° 0.1 mm 3 mps 745 mmHg 94%
21:00 +9°C° 0 mm 3 mps 745 mmHg 94%
22:00 +9°C° 0 mm 3 mps 746 mmHg 95%
23:00 +8°C° 0 mm 3 mps 746 mmHg 95%

Day after tomorrow, 25 October, Sunday

Time Temperature Precipitation Wind Pressure Humidity
00:00 +8°C° 0 mm 3 mps 746 mmHg 95%
01:00 +8°C° 0 mm 3 mps 746 mmHg 95%
02:00 +7°C° 0 mm 3 mps 747 mmHg 96%
03:00 +7°C° 0 mm 3 mps 747 mmHg 95%
04:00 +7°C° 0 mm 2 mps 747 mmHg 94%
05:00 +7°C° 0 mm 2 mps 747 mmHg 94%
06:00 +7°C° 0 mm 2 mps 747 mmHg 94%
07:00 +7°C° 0 mm 2 mps 748 mmHg 93%
08:00 +7°C° 0 mm 2 mps 748 mmHg 93%
09:00 +8°C° 0 mm 3 mps 748 mmHg 88%
10:00 +10°C° 0 mm 3 mps 748 mmHg 84%
11:00 +11°C° 0 mm 3 mps 749 mmHg 79%
12:00 +12°C° 0 mm 3 mps 749 mmHg 77%
13:00 +12°C° 0 mm 3 mps 749 mmHg 75%
14:00 +13°C° 0 mm 3 mps 749 mmHg 73%
15:00 +13°C° 0 mm 2 mps 748 mmHg 77%
16:00 +12°C° 0 mm 2 mps 748 mmHg 82%
17:00 +10°C° 0 mm 2 mps 748 mmHg 86%
18:00 +10°C° 0 mm 2 mps 749 mmHg 87%
19:00 +9°C° 0 mm 2 mps 749 mmHg 89%
20:00 +9°C° 0 mm 2 mps 749 mmHg 91%
21:00 +9°C° 0 mm 2 mps 749 mmHg 91%
22:00 +8°C° 0 mm 3 mps 749 mmHg 92%
23:00 +8°C° 0 mm 3 mps 749 mmHg 92%

, 26 October, Monday

Time Temperature Precipitation Wind Pressure Humidity
00:00 +8°C° 0 mm 3 mps 749 mmHg 92%
01:00 +7°C° 0 mm 3 mps 749 mmHg 92%
02:00 +7°C° 0 mm 3 mps 749 mmHg 91%
03:00 +7°C° 0 mm 3 mps 749 mmHg 92%
04:00 +7°C° 0 mm 3 mps 749 mmHg 93%
05:00 +5°C° 0 mm 3 mps 749 mmHg 93%
06:00 +7°C° 0 mm 3 mps 749 mmHg 94%
07:00 +6°C° 0 mm 4 mps 749 mmHg 94%
08:00 +6°C° 0 mm 4 mps 749 mmHg 95%
09:00 +7°C° 0 mm 5 mps 748 mmHg 90%
10:00 +8°C° 0 mm 5 mps 748 mmHg 85%
11:00 +10°C° 0 mm 5 mps 748 mmHg 80%
12:00 +10°C° 0 mm 5 mps 748 mmHg 78%
13:00 +11°C° 0 mm 6 mps 747 mmHg 76%
14:00 +13°C° 0 mm 6 mps 747 mmHg 73%
15:00 +12°C° 0 mm 5 mps 747 mmHg 77%
16:00 +10°C° 0 mm 5 mps 746 mmHg 81%
17:00 +9°C° 0 mm 5 mps 746 mmHg 85%
18:00 +10°C° 0 mm 5 mps 746 mmHg 84%
19:00 +10°C° 0 mm 5 mps 746 mmHg 84%
20:00 +10°C° 0 mm 6 mps 746 mmHg 83%
21:00 +10°C° 0 mm 6 mps 746 mmHg 83%
22:00 +9°C° 0 mm 5 mps 746 mmHg 83%
23:00 +9°C° 0 mm 5 mps 745 mmHg 84%

26 October, Monday

Time Temperature Precipitation Wind Pressure Humidity
00:00 +8°C° 0 mm 3 mps 749 mmHg 92%
01:00 +7°C° 0 mm 3 mps 749 mmHg 92%
02:00 +7°C° 0 mm 3 mps 749 mmHg 91%
03:00 +7°C° 0 mm 3 mps 749 mmHg 92%
04:00 +7°C° 0 mm 3 mps 749 mmHg 93%
05:00 +5°C° 0 mm 3 mps 749 mmHg 93%
06:00 +7°C° 0 mm 3 mps 749 mmHg 94%
07:00 +6°C° 0 mm 4 mps 749 mmHg 94%
08:00 +6°C° 0 mm 4 mps 749 mmHg 95%
09:00 +7°C° 0 mm 5 mps 748 mmHg 90%
10:00 +8°C° 0 mm 5 mps 748 mmHg 85%
11:00 +10°C° 0 mm 5 mps 748 mmHg 80%
12:00 +10°C° 0 mm 5 mps 748 mmHg 78%
13:00 +11°C° 0 mm 6 mps 747 mmHg 76%
14:00 +13°C° 0 mm 6 mps 747 mmHg 73%
15:00 +12°C° 0 mm 5 mps 747 mmHg 77%
16:00 +10°C° 0 mm 5 mps 746 mmHg 81%
17:00 +9°C° 0 mm 5 mps 746 mmHg 85%
18:00 +10°C° 0 mm 5 mps 746 mmHg 84%
19:00 +10°C° 0 mm 5 mps 746 mmHg 84%
20:00 +10°C° 0 mm 6 mps 746 mmHg 83%
21:00 +10°C° 0 mm 6 mps 746 mmHg 83%
22:00 +9°C° 0 mm 5 mps 746 mmHg 83%
23:00 +9°C° 0 mm 5 mps 745 mmHg 84%

27 October, Tuesday

Time Temperature Precipitation Wind Pressure Humidity
00:00 +9°C° 0 mm 5 mps 745 mmHg 86%
01:00 +9°C° 0 mm 5 mps 745 mmHg 87%
02:00 +9°C° 0 mm 5 mps 745 mmHg 89%
03:00 +9°C° 0 mm 5 mps 744 mmHg 90%
04:00 +9°C° 0 mm 5 mps 744 mmHg 90%
05:00 +9°C° 0 mm 5 mps 744 mmHg 91%
06:00 +9°C° 0 mm 5 mps 744 mmHg 91%
07:00 +9°C° 0 mm 5 mps 744 mmHg 91%
08:00 +10°C° 0 mm 5 mps 745 mmHg 91%
09:00 +10°C° 0 mm 5 mps 745 mmHg 88%
10:00 +12°C° 0 mm 5 mps 745 mmHg 85%
11:00 +13°C° 0 mm 5 mps 745 mmHg 82%
12:00 +13°C° 0 mm 5 mps 745 mmHg 79%
13:00 +14°C° 0 mm 5 mps 745 mmHg 75%
14:00 +15°C° 0 mm 5 mps 745 mmHg 72%
15:00 +14°C° 0 mm 4 mps 745 mmHg 76%
16:00 +13°C° 0 mm 4 mps 745 mmHg 80%
17:00 +13°C° 0 mm 3 mps 745 mmHg 84%
18:00 +12°C° 0 mm 3 mps 745 mmHg 86%
19:00 +12°C° 0 mm 3 mps 745 mmHg 88%
20:00 +11°C° 0 mm 3 mps 745 mmHg 90%
21:00 +11°C° 0 mm 3 mps 745 mmHg 91%
22:00 +11°C° 0 mm 3 mps 746 mmHg 92%
23:00 +11°C° 0 mm 3 mps 746 mmHg 93%

28 October, Wednesday

Time Temperature Precipitation Wind Pressure Humidity
00:00 +10°C° 0 mm 3 mps 746 mmHg 93%
01:00 +10°C° 0 mm 3 mps 746 mmHg 94%
02:00 +10°C° 0 mm 3 mps 746 mmHg 95%
03:00 +10°C° 0 mm 3 mps 746 mmHg 95%
04:00 +9°C° 0 mm 2 mps 746 mmHg 95%
05:00 +9°C° 0 mm 2 mps 746 mmHg 95%
06:00 +9°C° 0 mm 2 mps 746 mmHg 95%
07:00 +10°C° 0 mm 1 mps 747 mmHg 95%
08:00 +10°C° 0 mm 1 mps 747 mmHg 95%
09:00 +11°C° 0 mm 1 mps 747 mmHg 89%
10:00 +13°C° 0 mm 1 mps 747 mmHg 84%
11:00 +14°C° 0 mm 1 mps 747 mmHg 78%
12:00 +15°C° 0 mm 1 mps 747 mmHg 75%
13:00 +15°C° 0 mm 0 mps 747 mmHg 72%
14:00 +16°C° 0 mm 0 mps 747 mmHg 69%
15:00 +14°C° 0 mm 0 mps 747 mmHg 74%
16:00 +14°C° 0 mm 1 mps 747 mmHg 80%
17:00 +13°C° 0 mm 1 mps 747 mmHg 85%
18:00 +13°C° 0 mm 1 mps 748 mmHg 87%
19:00 +12°C° 0 mm 1 mps 748 mmHg 90%
20:00 +10°C° 0 mm 2 mps 748 mmHg 92%
21:00 +11°C° 0 mm 1 mps 748 mmHg 92%
22:00 +11°C° 0 mm 1 mps 748 mmHg 93%
23:00 +11°C° 0 mm 1 mps 748 mmHg 94%
Show more